Hourly Data Report for July 23, 2021

KUGLUKTUK A
NUNAVUT
Current Station Operator: NAVCAN

67°49'00.000" N
115°08'38.000" W
22.60 m
2300903
71938
YCO

Download Data

Hourly Data (July 2021)
Hourly Data Report for July 23, 2021
TIME
LST
Temp Definition
°C
Dew Point Definition
°C
Rel Hum Definition
%
Precip. Amount Definition
mm

Wind Dir Definition
10's deg

Wind Spd Definition
km/h
Visibility Definition
km
Stn Press Definition
kPa
Hmdx Definition


Wind Chill Definition


Weather Definition


00:00 12.2 9.8 85   28 16 24.1 99.85     LegendNANA
01:00 9.4 8.7 95   36 20 19.3 99.88     LegendNANA
02:00 8.2 6.4 88   5 32 24.1 99.98     Cloudy
03:00 8.0 5.7 85   6 31 24.1 100.10     LegendNANA
04:00 7.7 5.7 87   8 26 20.9 100.20     LegendNANA
05:00 6.8 5.7 93   6 17 12.9 100.32     Drizzle
06:00 6.7 6.0 95   5 16 9.7 100.37     Drizzle
07:00 6.7 5.8 94   3 16 6.4 100.46     Drizzle, Fog
08:00 6.8 6.0 94   4 20 6.4 100.51     Drizzle, Fog
09:00 6.7 5.9 95   3 27 4.8 100.57     Drizzle, Fog
10:00 6.5 5.3 92   3 30 6.4 100.63     Drizzle, Fog
11:00 6.6 5.0 89   3 26 16.1 100.69     Cloudy
12:00 7.0 4.0 81   2 32 24.1 100.74     LegendNANA
13:00 7.4 4.0 79   3 27 24.1 100.81     LegendNANA
14:00 7.5 2.5 70   2 29 24.1 100.90     Cloudy
15:00 8.8 2.3 64   2 26 24.1 100.95     LegendNANA
16:00 8.3 2.1 65   2 22 24.1 101.01     LegendNANA
17:00 8.4 1.9 64   3 19 24.1 101.05     Cloudy
18:00 8.2 2.1 65   2 18 24.1 101.07     LegendNANA
19:00 8.3 1.7 63   3 17 24.1 101.09     LegendNANA
20:00 8.3 1.7 63   2 19 24.1 101.09     Mostly Cloudy
21:00 8.2 1.8 64   2 26 24.1 101.08     LegendNANA
22:00 7.7 0.4 60   1 29 24.1 101.11     LegendNANA
23:00 7.4 0.4 61   2 14 24.1 101.11     Mostly Cloudy

Notes on Data Quality.

Legend

  • E = Estimated
  • M = Missing
  • NA = Not Available*
  • [empty] = Indicates an unobserved value
Date modified: